Location: Church Tower
(37.7144°N, 119.6316°W)
Time: 18:48:18
(UTC+00:00)

Cosmos 968 Rocket - Pass Details

Date: 15 November 2025
Orbit: 735 x 766 km, 74.0° (Epoch: 08 December)

Event Time Altitude Azimuth Distance (km) Brightness Sun altitude
Rises 14:06:06 0° 336° (NNW) 3,238 6.3 -6.9°
Reaches altitude 10° 14:08:32 10° 332° (NNW) 2,309 5.6 -6.5°
Maximum altitude 14:13:36 52° 256° (WSW) 946 3.7 -5.5°
Drops below altitude 10° 14:18:39 10° 181° (S) 2,293 6.2 -4.6°
Sets 14:21:03 0° 177° (S) 3,213 7.1 -4.1°
